Tracking 30995 objects as of 5-Jul-2025
HD Live streaming from Space Station
objects crossing your sky now

STARLINK-30811

Track STARLINK-30811 now!
10-day predictions
STARLINK-30811 is classified as:


NORAD ID: 58167
Int'l Code: 2023-166T
Perigee: 481.5 km
Apogee: 483.2 km
Inclination: 53.2 °
Period: 94.1 minutes
Semi major axis: 6853 km
RCS: Unknown
Launch date: October 29, 2023
Source: United States (US)
Launch site: AIR FORCE WESTERN TEST RANGE (AFWTR)
Your satellite tracking list
Your tracking list is empty




NASA's NSSDC Master Catalog

Two Line Element Set (TLE):
1 58167U 23166T   25186.54743285  .00000036  00000-0  13348-4 0  9997
2 58167  53.1597 287.3603 0001242  94.4174 265.6969 15.30185137 95197
Source of the keplerian elements: AFSPC